Location: Arrien
(43.3167°N, 0.1500°W)
Time: 12:33:39
(UTC+00:00)

Cosmos 2082 - Pass Details

Date: 27 May 2022
Orbit: 835 x 853 km, 71.0° (Epoch: 28 June)

Event Time Altitude Azimuth Distance (km) Brightness Sun altitude
Rises 21:21:34 0° 328° (NNW) 3,398 8.7 -16.0°
Reaches altitude 10° 21:24:09 10° 320° (NW) 2,457 7.5 -16.3°
Maximum altitude 21:29:18 38° 254° (WSW) 1,260 4.8 -16.8°
Enters shadow 21:33:26 15° 193° (SSW) 2,109 5.4 -17.3°
